sat.trackr.live / text

‹ back to catalog

POLYTECH-UNIVERSE 3 (R*)

NORAD 57191 · 2023-091AB

PAYLOAD ACTIVE UNKNOWN

§ Identity

Operator
Country
CIS
Launch date
2023-06-27
Launch site
VOSTO
Launch vehicle
Mass (kg)
RCS (m²)

Purposes: comms

External: N2YO · Heavens-Above · Gunter

§ Orbital elements

Epoch: 2026-05-25T03:38:38.803200Z

Period
94.81 min
Inclination
97.5061°
Eccentricity
0.0014989
Mean motion
15.18855891 rev/d
Perigee alt
499.0 km
Apogee alt
519.6 km
Semi-major
6,887.4 km
B*
2.1103e-4
RAAN
203.0909°
Arg perigee
203.8114°
Mean anomaly
156.2428°
Rev number
16,045

§ Raw data

POLYTECH-UNIVERSE 3 (R*)1 57191U 23091AB  26145.15183800  .00004340  00000+0  21103-3 0  99922 57191  97.5061 203.0909 0014989 203.8114 156.2428 15.18855891160451

JSON: /api/v1/satellites/57191 · /tle

For live sub-satellite position, see the globe view (requires WebGL).

§ Visibility from observer

Set your observer location to see the next 7 days of passes ≥ 10°. The values pass through the URL so the page stays shareable.

No JS? Fill the form by hand. The geolocation button needs JavaScript.

§ Radio — SatNOGS DB

ModeDescriptionDownlinkUplink
LoRa Mode U - LoRa 62.5k 436.550 MHz
FSK [Experiment] LoRa (62.5 kHz bandwidth) (as FSK) 436.550 MHz

2 transmitters · refreshed weekly from db.satnogs.org